Regional Weather Roundup
Issued by NWS

Home | Current Version | Previous Version | Graphics & Text | Print | Product List | Glossary On
Versions: 1 2 3 4 5 6 7 8 9 10 11 12 13 14 15 16 17 18 19 20 21 22 23 24 25 26 27 28 29 30 31 32 33 34 35 36 37 38 39 40 41 42 43 44 45 46 47 48 49 50
000
ASUS43 KBIS 281310
RWRND

NORTH DAKOTA REGIONAL WEATHER ROUNDUP
NATIONAL WEATHER SERVICE BISMARCK ND
800 AM CDT SUN AUG 28 2016

NOTE: "FAIR" INDICATES FEW OR NO CLOUDS BELOW 12,000 FEET WITH NO
SIGNIFICANT WEATHER AND/OR OBSTRUCTIONS TO VISIBILITY.


NDZ001>003-009>011-017-281400-
NORTHWEST NORTH DAKOTA

CITY           SKY/WX    TMP DP  RH WIND       PRES   REMARKS
WILLISTON      PTCLDY    64  52  64 S6        29.84R
MINOT          CLEAR     63  53  70 S3        29.86R
MINOT AFB      CLEAR     55  50  82 E2        29.86R
$$

NDZ018>021-031>035-040>046-281400-
SOUTHWEST NORTH DAKOTA

CITY           SKY/WX    TMP DP  RH WIND       PRES   REMARKS
BISMARCK       CLEAR     59  58  96 NE6       29.91R
DICKINSON      CLEAR     54  51  90 SE5       29.89R
GARRISON         N/A     59  54  83 SE5       29.89R
HETTINGER ARPT CLEAR     47  45  93 CALM      29.92R
$$

NDZ004>008-012>016-024-026-027-054-281400-
NORTHEAST NORTH DAKOTA

CITY           SKY/WX    TMP DP  RH WIND       PRES   REMARKS
GRAND FORKS    SUNNY     59  57  93 S8        29.99R
GRND FRKS AFB  MOSUNNY   59  57  94 S7        29.99S
DEVILS LAKE    SUNNY     63  61  93 SE10      29.95S
$$

NDZ022-023-025-028>030-036>039-047>053-281400-
SOUTHEAST NORTH DAKOTA

CITY           SKY/WX    TMP DP  RH WIND       PRES   REMARKS
FARGO          SUNNY     65  60  84 SE12      30.01R
JAMESTOWN      CLOUDY    63  61  93 SE7       29.98R
$$





USA.gov is the U.S. government's official web portal to all federal, state and local government web resources and services.